Weather History for KSRQ - February, 2012

Change the Weather History Date:

Sunday, February 26, 2012

  Actual Average Record
Temperature  
Mean Temperature 69 °F 64 °F  
Max Temperature 77 °F 74 °F 87 °F (1962)
Min Temperature 60 °F 55 °F 27 °F (1967)
Degree Days  
Heating Degree Days 0 3  
Month to date heating degree days 38 92  
Since 1 July heating degree days 198 412  
Cooling Degree Days 4 2  
Month to date cooling degree days 113 48  
Year to date cooling degree days 147 100  
Growing Degree Days 18 (Base 50)    
Moisture  
Dew Point 52 °F    
Average Humidity 59    
Maximum Humidity 87    
Minimum Humidity 36    
Precipitation  
Precipitation 0.00 in 0.15 in 3.19 in (1992)
Month to date precipitation 0.74 2.40  
Year to date precipitation 1.73 4.89  
Sea Level Pressure  
Sea Level Pressure 30.23 in    
Wind  
Wind Speed 13 mph (ENE)    
Max Wind Speed 21 mph    
Max Gust Speed 28 mph    
Visibility 10 miles    
Events      
T = Trace of Precipitation, MM = Missing Value Source: NWS Daily Summary

Daily Weather History Graph

Daily Weather History Graph

Search for Another Location

Airport or City:

Trip Planner

Search our weather history database for the weather conditions in past years. The results will help you decide how hot, cold, wet, or windy it might be!

Date:

Astronomy

Feb. 26, 2012 Rise Set
Actual Time 6:57 AM EST 6:28 PM EST
Civil Twilight 6:34 AM EST 6:52 PM EST
Nautical Twilight 6:07 AM EST 7:19 PM EST
Astronomical Twilight 5:40 AM EST 7:46 PM EST
Moon 9:22 AM EST (2/26) 10:52 PM EST (2/26)
Length of Visible Light 12h 17m
Length of Day
11h 30m
Waxing Crescent, 20% of the Moon is Illuminated
Feb 26
Waxing Crescent
Feb 29
First Quarter
Mar 8
Full
Mar 14
Last Quarter
Mar 22
New

Hourly Weather History & Observations

Time (EST) Temp. Dew Point Humidity Pressure Visibility Wind Dir Wind Speed Gust Speed Precip Events Conditions
12:53 AM 61.0 °F 37.9 °F 42% 30.22 in 10.0 mi ENE 17.3 mph 21.9 mph N/A   Overcast
1:19 AM 60.8 °F 39.2 °F 45% 30.23 in 10.0 mi NE 12.7 mph 19.6 mph N/A   Overcast
2:53 AM 61.0 °F 37.9 °F 42% 30.22 in 10.0 mi ENE 11.5 mph 19.6 mph N/A   Overcast
3:30 AM 60.8 °F 39.2 °F 45% 30.22 in 10.0 mi ENE 12.7 mph - N/A   Overcast
3:53 AM 61.0 °F 39.9 °F 46% 30.22 in 10.0 mi ENE 10.4 mph - N/A   Overcast
4:53 AM 61.0 °F 42.1 °F 50% 30.21 in 10.0 mi ENE 13.8 mph 21.9 mph N/A   Overcast
5:53 AM 61.0 °F 42.1 °F 50% 30.21 in 10.0 mi ENE 11.5 mph - N/A   Overcast
6:53 AM 60.1 °F 42.1 °F 51% 30.22 in 10.0 mi ENE 12.7 mph - N/A   Overcast
7:53 AM 60.1 °F 44.1 °F 55% 30.23 in 10.0 mi ENE 13.8 mph - N/A   Overcast
8:53 AM 63.0 °F 46.0 °F 54% 30.24 in 10.0 mi ENE 12.7 mph - N/A   Mostly Cloudy
9:53 AM 66.0 °F 48.9 °F 54% 30.26 in 10.0 mi ENE 13.8 mph - N/A   Overcast
10:53 AM 68.0 °F 52.0 °F 56% 30.26 in 10.0 mi ENE 15.0 mph 23.0 mph N/A   Mostly Cloudy
11:53 AM 71.1 °F 55.0 °F 57% 30.25 in 10.0 mi East 18.4 mph 25.3 mph N/A   Overcast
12:53 PM 73.0 °F 57.0 °F 57% 30.23 in 10.0 mi East 15.0 mph 24.2 mph N/A   Mostly Cloudy
1:53 PM 73.9 °F 57.9 °F 57% 30.21 in 10.0 mi East 15.0 mph 25.3 mph N/A   Overcast
2:53 PM 75.9 °F 59.0 °F 56% 30.20 in 10.0 mi East 19.6 mph 25.3 mph N/A   Mostly Cloudy
3:53 PM 77.0 °F 60.1 °F 56% 30.19 in 10.0 mi East 17.3 mph - N/A   Clear
4:53 PM 73.9 °F 60.1 °F 62% 30.19 in 10.0 mi East 17.3 mph 24.2 mph N/A   Partly Cloudy
5:53 PM 72.0 °F 60.1 °F 66% 30.19 in 10.0 mi East 17.3 mph - N/A   Partly Cloudy
6:53 PM 70.0 °F 61.0 °F 73% 30.21 in 10.0 mi East 12.7 mph - N/A   Clear
7:53 PM 69.1 °F 61.0 °F 75% 30.22 in 10.0 mi East 12.7 mph 19.6 mph N/A   Clear
8:53 PM 68.0 °F 61.0 °F 78% 30.24 in 10.0 mi East 11.5 mph - N/A   Clear
9:53 PM 66.9 °F 62.1 °F 84% 30.26 in 10.0 mi ENE 9.2 mph - N/A   Clear
10:53 PM 66.9 °F 62.1 °F 84% 30.26 in 10.0 mi East 8.1 mph - N/A   Clear
11:53 PM 66.9 °F 63.0 °F 87% 30.26 in 10.0 mi East 5.8 mph - N/A   Clear